| time (UTC) | temp F | wind direction | speed MPH | gust MPH | rain 1hr in | rain 24hr in | rain mn in | humidity % | barometer mb |
| 20260508003944 | 53 | 243 | 1.0 | 6.0 | 0.00 | 0.00 | 0.00 | 58 | 1011.4 |
| 20260508003544 | 53 | 216 | 2.0 | 9.0 | 0.00 | 0.00 | 0.00 | 58 | 1011.5 |
| 20260508003145 | 53 | 279 | 2.0 | 9.0 | 0.00 | 0.00 | 0.00 | 57 | 1011.5 |
| 20260508002744 | 53 | 238 | 2.0 | 9.0 | 0.00 | 0.00 | 0.00 | 57 | 1011.5 |
| 20260508001300 | 54 | 276 | 3.0 | 9.0 | 0.00 | 0.00 | 0.00 | 55 | 1011.4 |
| 20260507235822 | 54 | 48 | 3.0 | 10.0 | 0.00 | 0.00 | 0.00 | 53 | 1011.2 |
| 20260507235418 | 54 | 42 | 2.0 | 10.0 | 0.00 | 0.00 | 0.00 | 51 | 1011.2 |
| 20260507235012 | 54 | 46 | 2.0 | 10.0 | 0.00 | 0.00 | 0.00 | 49 | 1011.2 |
| 20260507234600 | 55 | 46 | 3.0 | 10.0 | 0.00 | 0.00 | 0.00 | 48 | 1011.1 |
| 20260507234205 | 55 | 42 | 3.0 | 9.0 | 0.00 | 0.00 | 0.00 | 49 | 1011.1 |
| 20260507233801 | 55 | 51 | 3.0 | 9.0 | 0.00 | 0.00 | 0.00 | 49 | 1011.1 |
| 20260507233408 | 55 | 55 | 3.0 | 11.0 | 0.00 | 0.00 | 0.00 | 48 | 1011.1 |
| 20260507232953 | 55 | 33 | 3.0 | 11.0 | 0.00 | 0.00 | 0.00 | 48 | 1011.0 |
| 20260507232542 | 55 | 32 | 3.0 | 11.0 | 0.00 | 0.00 | 0.00 | 50 | 1011.1 |
| 20260507232145 | 55 | 26 | 3.0 | 11.0 | 0.00 | 0.00 | 0.00 | 49 | 1011.1 |
| 20260507231739 | 55 | 54 | 3.0 | 11.0 | 0.00 | 0.00 | 0.00 | 50 | 1011.1 |
| 20260507231335 | 56 | 200 | 2.0 | 9.0 | 0.00 | 0.00 | 0.00 | 52 | 1011.1 |
| 20260507230923 | 56 | 224 | 2.0 | 9.0 | 0.00 | 0.00 | 0.00 | 50 | 1011.1 |
| 20260507230530 | 55 | 270 | 2.0 | 9.0 | 0.00 | 0.00 | 0.00 | 55 | 1011.2 |
| 20260507230131 | 55 | 355 | 3.0 | 13.0 | 0.00 | 0.00 | 0.00 | 53 | 1011.3 |
| 20260507225722 | 55 | 269 | 2.0 | 13.0 | 0.00 | 0.00 | 0.00 | 56 | 1011.2 |
| 20260507225308 | 55 | 249 | 3.0 | 13.0 | 0.00 | 0.00 | 0.00 | 55 | 1011.3 |
| 20260507224902 | 56 | 0 | 3.0 | 13.0 | 0.00 | 0.00 | 0.00 | 54 | 1011.3 |
| 20260507223951 | 56 | 0 | 4.0 | 13.0 | 0.00 | 0.00 | 0.00 | 53 | 1011.3 |
| 20260507223539 | 56 | 0 | 4.0 | 13.0 | 0.00 | 0.00 | 0.00 | 52 | 1011.3 |
| 20260507222622 | 56 | 343 | 4.0 | 10.0 | 0.00 | 0.00 | 0.00 | 52 | 1011.2 |
| 20260507222210 | 56 | 0 | 3.0 | 10.0 | 0.00 | 0.00 | 0.00 | 52 | 1011.3 |
| 20260507221811 | 56 | 17 | 3.0 | 9.0 | 0.00 | 0.00 | 0.00 | 52 | 1011.2 |
| 20260507220851 | 56 | 238 | 3.0 | 10.0 | 0.00 | 0.00 | 0.00 | 50 | 1011.2 |
| 20260507220451 | 56 | 0 | 3.0 | 10.0 | 0.00 | 0.00 | 0.00 | 50 | 1011.2 |
| 20260507220047 | 57 | 0 | 3.0 | 12.0 | 0.00 | 0.00 | 0.00 | 50 | 1011.1 |
| 20260507215643 | 57 | 0 | 3.0 | 12.0 | 0.00 | 0.00 | 0.00 | 50 | 1011.2 |
| 20260507215246 | 57 | 0 | 3.0 | 12.0 | 0.00 | 0.00 | 0.00 | 50 | 1011.1 |
| 20260507214326 | 57 | 0 | 3.0 | 12.0 | 0.00 | 0.00 | 0.00 | 51 | 1011.1 |
| 20260507213415 | 57 | 0 | 2.0 | 9.0 | 0.00 | 0.00 | 0.00 | 54 | 1010.9 |
| 20260507213007 | 57 | 0 | 3.0 | 9.0 | 0.00 | 0.00 | 0.00 | 53 | 1010.9 |
| 20260507212551 | 57 | 0 | 3.0 | 9.0 | 0.00 | 0.00 | 0.00 | 51 | 1010.9 |
| 20260507212158 | 57 | 0 | 3.0 | 8.0 | 0.00 | 0.00 | 0.00 | 54 | 1011.0 |
| 20260507211749 | 57 | 0 | 3.0 | 11.0 | 0.00 | 0.00 | 0.00 | 53 | 1011.0 |
| 20260507211356 | 57 | 0 | 3.0 | 11.0 | 0.00 | 0.00 | 0.00 | 50 | 1011.0 |
| 20260507210952 | 57 | 0 | 3.0 | 11.0 | 0.00 | 0.00 | 0.00 | 50 | 1011.0 |
| 20260507210554 | 57 | 0 | 3.0 | 11.0 | 0.00 | 0.00 | 0.00 | 49 | 1011.0 |
| 20260507205618 | 57 | 0 | 3.0 | 8.0 | 0.00 | 0.00 | 0.00 | 50 | 1011.0 |
| 20260507205204 | 57 | 0 | 3.0 | 8.0 | 0.00 | 0.00 | 0.00 | 46 | 1010.9 |
| 20260507204219 | 57 | 0 | 3.0 | 9.0 | 0.00 | 0.00 | 0.00 | 46 | 1010.9 |
| 20260507203818 | 57 | 0 | 3.0 | 10.0 | 0.00 | 0.00 | 0.00 | 50 | 1010.9 |
| 20260507203408 | 57 | 0 | 2.0 | 10.0 | 0.00 | 0.00 | 0.00 | 45 | 1011.0 |
| 20260507202450 | 57 | 222 | 3.0 | 10.0 | 0.00 | 0.00 | 0.00 | 49 | 1011.0 |
| 20260507202048 | 57 | 184 | 3.0 | 9.0 | 0.00 | 0.00 | 0.00 | 48 | 1011.1 |
| 20260507201634 | 57 | 238 | 3.0 | 9.0 | 0.00 | 0.00 | 0.00 | 50 | 1011.1 |
| 20260507200715 | 57 | 254 | 3.0 | 9.0 | 0.00 | 0.00 | 0.00 | 49 | 1011.1 |
| 20260507200303 | 57 | 26 | 3.0 | 9.0 | 0.00 | 0.00 | 0.00 | 48 | 1011.2 |
| 20260507195909 | 57 | 250 | 3.0 | 9.0 | 0.00 | 0.00 | 0.00 | 53 | 1011.2 |
| 20260507195453 | 57 | 180 | 4.0 | 9.0 | 0.00 | 0.00 | 0.00 | 55 | 1011.2 |
| 20260507195100 | 57 | 171 | 4.0 | 9.0 | 0.00 | 0.00 | 0.00 | 50 | 1011.3 |
| 20260507194653 | 57 | 191 | 3.0 | 8.0 | 0.00 | 0.00 | 0.00 | 52 | 1011.3 |
| 20260507194244 | 57 | 157 | 3.0 | 10.0 | 0.00 | 0.00 | 0.00 | 49 | 1011.4 |
| 20260507193828 | 57 | 225 | 3.0 | 10.0 | 0.00 | 0.00 | 0.00 | 49 | 1011.4 |
| 20260507193419 | 57 | 200 | 3.0 | 10.0 | 0.00 | 0.00 | 0.00 | 53 | 1011.4 |
| 20260507193009 | 57 | 196 | 3.0 | 10.0 | 0.00 | 0.00 | 0.00 | 51 | 1011.5 |
| 20260507192604 | 57 | 183 | 2.0 | 10.0 | 0.00 | 0.00 | 0.00 | 52 | 1011.5 |
| 20260507191624 | 57 | 207 | 3.0 | 8.0 | 0.00 | 0.00 | 0.00 | 55 | 1011.7 |
| 20260507190650 | 57 | 60 | 3.0 | 7.0 | 0.00 | 0.00 | 0.00 | 54 | 1011.7 |
| 20260507185741 | 57 | 259 | 2.0 | 7.0 | 0.00 | 0.00 | 0.00 | 56 | 1011.7 |
| 20260507185333 | 57 | 187 | 2.0 | 6.0 | 0.00 | 0.00 | 0.00 | 57 | 1011.6 |
| 20260507184920 | 57 | 221 | 2.0 | 6.0 | 0.00 | 0.00 | 0.00 | 57 | 1011.6 |
| 20260507184514 | 57 | 176 | 2.0 | 8.0 | 0.00 | 0.00 | 0.00 | 58 | 1011.7 |
| 20260507184114 | 56 | 216 | 3.0 | 8.0 | 0.00 | 0.00 | 0.00 | 56 | 1011.7 |
| 20260507183659 | 56 | 197 | 2.0 | 8.0 | 0.00 | 0.00 | 0.00 | 53 | 1011.6 |
| 20260507183246 | 56 | 221 | 3.0 | 8.0 | 0.00 | 0.00 | 0.00 | 54 | 1011.7 |
| 20260507182845 | 56 | 282 | 3.0 | 8.0 | 0.00 | 0.00 | 0.00 | 54 | 1011.8 |
| 20260507182451 | 56 | 171 | 3.0 | 6.0 | 0.00 | 0.00 | 0.00 | 57 | 1011.7 |
| 20260507182049 | 56 | 319 | 3.0 | 6.0 | 0.00 | 0.00 | 0.00 | 55 | 1011.7 |
| 20260507181632 | 56 | 242 | 2.0 | 6.0 | 0.00 | 0.00 | 0.00 | 57 | 1011.7 |
| 20260507181221 | 56 | 273 | 2.0 | 6.0 | 0.00 | 0.00 | 0.00 | 57 | 1011.6 |
| 20260507180808 | 56 | 292 | 2.0 | 5.0 | 0.00 | 0.00 | 0.00 | 60 | 1011.6 |
| 20260507175306 | 56 | 26 | 2.0 | 6.0 | 0.00 | 0.00 | 0.00 | 63 | 1011.6 |
| 20260507174853 | 57 | 281 | 2.0 | 6.0 | 0.00 | 0.00 | 0.00 | 59 | 1011.6 |
| 20260507174459 | 56 | 285 | 2.0 | 6.0 | 0.00 | 0.00 | 0.00 | 64 | 1011.6 |
| 20260507174103 | 56 | 202 | 2.0 | 6.0 | 0.00 | 0.00 | 0.00 | 57 | 1011.7 |
| 20260507173647 | 56 | 236 | 2.0 | 6.0 | 0.00 | 0.00 | 0.00 | 60 | 1011.8 |
| 20260507173245 | 56 | 196 | 2.0 | 8.0 | 0.00 | 0.00 | 0.00 | 61 | 1011.9 |
| 20260507172836 | 56 | 246 | 2.0 | 8.0 | 0.00 | 0.00 | 0.00 | 70 | 1011.9 |
| 20260507172435 | 56 | 237 | 2.0 | 8.0 | 0.00 | 0.00 | 0.00 | 64 | 1011.9 |
| 20260507171450 | 56 | 188 | 2.0 | 6.0 | 0.00 | 0.00 | 0.00 | 65 | 1011.9 |
| 20260507170525 | 55 | 0 | 2.0 | 8.0 | 0.00 | 0.00 | 0.00 | 64 | 1011.9 |
| 20260507170118 | 55 | 0 | 2.0 | 8.0 | 0.00 | 0.00 | 0.00 | 67 | 1011.8 |
| 20260507165138 | 56 | 0 | 2.0 | 5.0 | 0.00 | 0.00 | 0.00 | 65 | 1011.8 |
| 20260507164726 | 56 | 0 | 2.0 | 5.0 | 0.00 | 0.00 | 0.00 | 60 | 1011.8 |
| 20260507164323 | 56 | 232 | 2.0 | 5.0 | 0.00 | 0.00 | 0.00 | 60 | 1011.8 |
| 20260507163405 | 56 | 0 | 2.0 | 6.0 | 0.00 | 0.00 | 0.00 | 66 | 1011.8 |
| 20260507163001 | 56 | 0 | 2.0 | 6.0 | 0.00 | 0.00 | 0.00 | 62 | 1011.7 |
| 20260507162606 | 56 | 0 | 2.0 | 6.0 | 0.00 | 0.00 | 0.00 | 60 | 1011.8 |
| 20260507162151 | 56 | 0 | 2.0 | 5.0 | 0.00 | 0.00 | 0.00 | 60 | 1011.8 |
| 20260507161756 | 56 | 0 | 2.0 | 7.0 | 0.00 | 0.00 | 0.00 | 62 | 1011.9 |
| 20260507161344 | 56 | 0 | 2.0 | 7.0 | 0.00 | 0.00 | 0.00 | 65 | 1011.8 |
| 20260507160940 | 56 | 0 | 2.0 | 7.0 | 0.00 | 0.00 | 0.00 | 66 | 1011.8 |
| 20260507160012 | 56 | 0 | 2.0 | 7.0 | 0.00 | 0.00 | 0.00 | 64 | 1011.9 |
| 20260507155610 | 56 | 0 | 2.0 | 7.0 | 0.00 | 0.00 | 0.00 | 61 | 1011.9 |
| 20260507155209 | 56 | 0 | 3.0 | 7.0 | 0.00 | 0.00 | 0.00 | 61 | 1012.0 |
| 20260507154230 | 57 | 0 | 2.0 | 8.0 | 0.00 | 0.00 | 0.00 | 64 | 1012.0 |
| 20260507153817 | 57 | 0 | 2.0 | 8.0 | 0.00 | 0.00 | 0.00 | 56 | 1012.0 |
| 20260507153421 | 57 | 0 | 2.0 | 8.0 | 0.00 | 0.00 | 0.00 | 54 | 1012.0 |
| 20260507152511 | 57 | 0 | 2.0 | 6.0 | 0.00 | 0.00 | 0.00 | 55 | 1012.0 |
| 20260507151549 | 57 | 0 | 2.0 | 6.0 | 0.00 | 0.00 | 0.00 | 55 | 1012.0 |
| 20260507151148 | 57 | 0 | 2.0 | 6.0 | 0.00 | 0.00 | 0.00 | 54 | 1012.0 |
| 20260507150733 | 57 | 0 | 1.0 | 4.0 | 0.00 | 0.00 | 0.00 | 57 | 1012.0 |
| 20260507150329 | 56 | 0 | 2.0 | 4.0 | 0.00 | 0.00 | 0.00 | 59 | 1012.0 |
| 20260507145407 | 56 | 0 | 1.0 | 4.0 | 0.00 | 0.00 | 0.00 | 59 | 1012.0 |
| 20260507145005 | 56 | 0 | 2.0 | 5.0 | 0.00 | 0.00 | 0.00 | 62 | 1012.0 |
| 20260507144608 | 55 | 0 | 2.0 | 5.0 | 0.00 | 0.00 | 0.00 | 65 | 1011.9 |
| 20260507144211 | 56 | 0 | 2.0 | 5.0 | 0.00 | 0.00 | 0.00 | 68 | 1011.9 |
| 20260507143800 | 56 | 0 | 2.0 | 5.0 | 0.00 | 0.00 | 0.00 | 67 | 1012.0 |
| 20260507142840 | 56 | 0 | 2.0 | 5.0 | 0.00 | 0.00 | 0.00 | 67 | 1012.0 |
| 20260507142426 | 55 | 0 | 2.0 | 5.0 | 0.00 | 0.00 | 0.00 | 65 | 1012.1 |
| 20260507140957 | 55 | 163 | 2.0 | 7.0 | 0.00 | 0.00 | 0.00 | 65 | 1012.1 |
| 20260507140557 | 54 | 163 | 1.0 | 7.0 | 0.00 | 0.00 | 0.00 | 64 | 1012.3 |
| 20260507140146 | 54 | 205 | 1.0 | 7.0 | 0.00 | 0.00 | 0.00 | 66 | 1012.3 |
| 20260507134644 | 53 | 247 | 2.0 | 5.0 | 0.00 | 0.00 | 0.00 | 66 | 1012.4 |
| 20260507134247 | 53 | 161 | 2.0 | 9.0 | 0.00 | 0.00 | 0.00 | 68 | 1012.4 |
| 20260507133834 | 54 | 250 | 2.0 | 9.0 | 0.00 | 0.00 | 0.00 | 66 | 1012.5 |
| 20260507133440 | 53 | 229 | 2.0 | 9.0 | 0.00 | 0.00 | 0.00 | 68 | 1012.5 |
| 20260507132516 | 53 | 0 | 1.0 | 9.0 | 0.00 | 0.00 | 0.00 | 67 | 1012.4 |
| 20260507131546 | 53 | 0 | 2.0 | 5.0 | 0.00 | 0.00 | 0.00 | 66 | 1012.4 |
| 20260507131131 | 53 | 190 | 1.0 | 3.0 | 0.00 | 0.00 | 0.00 | 67 | 1012.5 |
| 20260507130736 | 53 | 196 | 1.0 | 4.0 | 0.00 | 0.00 | 0.00 | 68 | 1012.4 |
| 20260507130322 | 52 | 189 | 1.0 | 4.0 | 0.00 | 0.00 | 0.00 | 68 | 1012.4 |
| 20260507125909 | 52 | 236 | 1.0 | 4.0 | 0.00 | 0.00 | 0.00 | 68 | 1012.3 |
| 20260507125506 | 51 | 223 | 1.0 | 4.0 | 0.00 | 0.00 | 0.00 | 68 | 1012.4 |
| 20260507124540 | 51 | 227 | 0.0 | 2.0 | 0.00 | 0.00 | 0.00 | 70 | 1012.4 |
| 20260507124127 | 50 | 219 | 0.0 | 2.0 | 0.00 | 0.00 | 0.00 | 69 | 1012.4 |
| 20260507123731 | 50 | 221 | 0.0 | 0.0 | 0.00 | 0.00 | 0.00 | 71 | 1012.5 |
| 20260507123317 | 50 | 217 | 0.0 | 2.0 | 0.00 | 0.00 | 0.00 | 72 | 1012.5 |
| 20260507121848 | 49 | 198 | 0.0 | 2.0 | 0.00 | 0.00 | 0.00 | 73 | 1012.4 |
| 20260507120920 | 48 | 200 | 0.0 | 1.0 | 0.00 | 0.00 | 0.00 | 73 | 1012.4 |
| 20260507120520 | 48 | 214 | 0.0 | 1.0 | 0.00 | 0.00 | 0.00 | 73 | 1012.5 |
| 20260507115546 | 48 | 193 | 0.0 | 2.0 | 0.00 | 0.00 | 0.00 | 74 | 1012.5 |
| 20260507115152 | 47 | 204 | 0.0 | 2.0 | 0.00 | 0.00 | 0.00 | 75 | 1012.5 |
| 20260507114742 | 47 | 184 | 0.0 | 3.0 | 0.00 | 0.00 | 0.00 | 75 | 1012.6 |
| 20260507114335 | 47 | 218 | 0.0 | 3.0 | 0.00 | 0.00 | 0.00 | 76 | 1012.6 |
| 20260507113934 | 46 | 211 | 0.0 | 3.0 | 0.00 | 0.00 | 0.00 | 76 | 1012.6 |
| 20260507113540 | 46 | 215 | 0.0 | 2.0 | 0.00 | 0.00 | 0.00 | 76 | 1012.5 |
| 20260507113135 | 46 | 209 | 0.0 | 2.0 | 0.00 | 0.00 | 0.00 | 76 | 1012.5 |
| 20260507112726 | 46 | 213 | 0.0 | 1.0 | 0.00 | 0.00 | 0.00 | 76 | 1012.4 |
| 20260507112320 | 46 | 213 | 0.0 | 1.0 | 0.00 | 0.00 | 0.00 | 77 | 1012.4 |
| 20260507111909 | 45 | 214 | 0.0 | 0.0 | 0.00 | 0.00 | 0.00 | 78 | 1012.3 |
| 20260507111504 | 45 | 214 | 0.0 | 3.0 | 0.00 | 0.00 | 0.00 | 77 | 1012.3 |
| 20260507110544 | 45 | 210 | 0.0 | 1.0 | 0.00 | 0.00 | 0.00 | 77 | 1012.2 |
| 20260507110128 | 45 | 210 | 0.0 | 1.0 | 0.00 | 0.00 | 0.00 | 77 | 1012.2 |
| 20260507105726 | 44 | 165 | 0.0 | 1.0 | 0.00 | 0.00 | 0.00 | 78 | 1012.2 |
| 20260507105332 | 44 | 234 | 0.0 | 1.0 | 0.00 | 0.00 | 0.00 | 78 | 1012.2 |
| 20260507104936 | 44 | 246 | 0.0 | 0.0 | 0.00 | 0.00 | 0.00 | 79 | 1012.2 |
| 20260507104525 | 44 | 248 | 0.0 | 0.0 | 0.00 | 0.00 | 0.00 | 79 | 1012.2 |
| 20260507104110 | 44 | 247 | 0.0 | 0.0 | 0.00 | 0.00 | 0.00 | 79 | 1012.1 |
| 20260507103703 | 43 | 247 | 0.0 | 1.0 | 0.00 | 0.01 | 0.00 | 80 | 1012.0 |
| 20260507103259 | 43 | 228 | 0.0 | 0.0 | 0.00 | 0.01 | 0.00 | 80 | 1012.1 |
| 20260507102344 | 43 | 124 | 0.0 | 0.0 | 0.00 | 0.01 | 0.00 | 80 | 1012.1 |
| 20260507101940 | 43 | 123 | 0.0 | 0.0 | 0.00 | 0.01 | 0.00 | 80 | 1012.1 |
| 20260507101532 | 43 | 124 | 0.0 | 0.0 | 0.00 | 0.02 | 0.00 | 80 | 1012.0 |
| 20260507101138 | 43 | 124 | 0.0 | 0.0 | 0.00 | 0.02 | 0.00 | 79 | 1011.9 |
| 20260507100731 | 43 | 124 | 0.0 | 0.0 | 0.00 | 0.03 | 0.00 | 80 | 1011.9 |
| 20260507100319 | 43 | 123 | 0.0 | 0.0 | 0.00 | 0.04 | 0.00 | 79 | 1011.9 |
| 20260507095345 | 43 | 124 | 0.0 | 0.0 | 0.00 | 0.04 | 0.00 | 79 | 1012.0 |
| 20260507094945 | 43 | 123 | 0.0 | 1.0 | 0.00 | 0.04 | 0.00 | 78 | 1012.0 |
| 20260507094549 | 43 | 124 | 0.0 | 1.0 | 0.00 | 0.04 | 0.00 | 78 | 1011.9 |
| 20260507094138 | 44 | 225 | 1.0 | 3.0 | 0.00 | 0.04 | 0.00 | 78 | 1011.9 |
| 20260507093743 | 44 | 111 | 0.0 | 2.0 | 0.00 | 0.06 | 0.00 | 77 | 1011.8 |
| 20260507093343 | 44 | 109 | 0.0 | 2.0 | 0.00 | 0.06 | 0.00 | 78 | 1011.9 |
| 20260507092422 | 44 | 132 | 0.0 | 2.0 | 0.00 | 0.06 | 0.00 | 78 | 1011.9 |
| 20260507092024 | 44 | 178 | 0.0 | 2.0 | 0.00 | 0.07 | 0.00 | 77 | 1011.9 |
| 20260507091625 | 44 | 122 | 0.0 | 2.0 | 0.00 | 0.07 | 0.00 | 77 | 1011.9 |
| 20260507091222 | 44 | 123 | 0.0 | 2.0 | 0.00 | 0.07 | 0.00 | 78 | 1011.9 |
| 20260507090257 | 43 | 128 | 0.0 | 1.0 | 0.00 | 0.08 | 0.00 | 78 | 1012.2 |
| 20260507085851 | 43 | 128 | 0.0 | 0.0 | 0.00 | 0.09 | 0.00 | 79 | 1012.1 |
| 20260507085443 | 43 | 128 | 0.0 | 0.0 | 0.00 | 0.09 | 0.00 | 78 | 1012.1 |
| 20260507084523 | 43 | 128 | 0.0 | 0.0 | 0.00 | 0.10 | 0.00 | 79 | 1012.0 |
| 20260507084126 | 43 | 128 | 0.0 | 0.0 | 0.00 | 0.11 | 0.00 | 79 | 1012.1 |
| 20260507083726 | 43 | 128 | 0.0 | 0.0 | 0.00 | 0.11 | 0.00 | 78 | 1012.1 |
| 20260507082805 | 43 | 128 | 0.0 | 0.0 | 0.00 | 0.11 | 0.00 | 77 | 1012.2 |
| 20260507082402 | 43 | 128 | 0.0 | 0.0 | 0.00 | 0.12 | 0.00 | 78 | 1012.2 |
| 20260507081959 | 43 | 128 | 0.0 | 0.0 | 0.00 | 0.12 | 0.00 | 78 | 1012.2 |
| 20260507081544 | 43 | 128 | 0.0 | 0.0 | 0.00 | 0.12 | 0.00 | 79 | 1012.2 |
| 20260507081128 | 43 | 128 | 0.0 | 0.0 | 0.00 | 0.13 | 0.00 | 78 | 1012.2 |
| 20260507080726 | 43 | 128 | 0.0 | 0.0 | 0.00 | 0.13 | 0.00 | 79 | 1012.2 |
| 20260507080324 | 43 | 128 | 0.0 | 0.0 | 0.00 | 0.13 | 0.00 | 79 | 1012.2 |
| 20260507075924 | 43 | 128 | 0.0 | 0.0 | 0.00 | 0.13 | 0.00 | 79 | 1012.2 |
| 20260507074952 | 43 | 128 | 0.0 | 0.0 | 0.00 | 0.13 | 0.00 | 79 | 1012.2 |
| 20260507074537 | 43 | 128 | 0.0 | 1.0 | 0.00 | 0.14 | 0.00 | 79 | 1012.2 |
| 20260507074128 | 43 | 128 | 0.0 | 0.0 | 0.00 | 0.14 | 0.00 | 79 | 1012.2 |
| 20260507073721 | 43 | 128 | 0.0 | 0.0 | 0.00 | 0.14 | 0.00 | 79 | 1012.2 |
| 20260507073308 | 43 | 128 | 0.0 | 0.0 | 0.00 | 0.14 | 0.00 | 79 | 1012.2 |
| 20260507072859 | 43 | 128 | 0.0 | 0.0 | 0.00 | 0.14 | 0.00 | 79 | 1012.2 |
| 20260507072505 | 43 | 128 | 0.0 | 1.0 | 0.00 | 0.15 | 0.00 | 80 | 1012.3 |
| 20260507071539 | 43 | 128 | 0.0 | 0.0 | 0.00 | 0.15 | 0.00 | 79 | 1012.3 |
| 20260507071141 | 43 | 128 | 0.0 | 2.0 | 0.00 | 0.15 | 0.00 | 80 | 1012.3 |
| 20260507070741 | 43 | 156 | 0.0 | 1.0 | 0.00 | 0.15 | 0.00 | 80 | 1012.3 |
| 20260507065306 | 43 | 157 | 0.0 | 1.0 | 0.00 | 0.15 | 0.00 | 80 | 1012.5 |
| 20260507064912 | 43 | 180 | 0.0 | 0.0 | 0.00 | 0.15 | 0.00 | 80 | 1012.5 |
| 20260507063951 | 43 | 248 | 0.0 | 0.0 | 0.00 | 0.16 | 0.00 | 80 | 1012.6 |
| 20260507063538 | 43 | 247 | 0.0 | 0.0 | 0.00 | 0.16 | 0.00 | 79 | 1012.6 |
| 20260507063132 | 43 | 247 | 0.0 | 0.0 | 0.00 | 0.16 | 0.00 | 79 | 1012.7 |
| 20260507062728 | 44 | 247 | 0.0 | 0.0 | 0.00 | 0.16 | 0.00 | 79 | 1012.7 |
| 20260507062325 | 44 | 248 | 0.0 | 0.0 | 0.00 | 0.17 | 0.00 | 79 | 1012.7 |
| 20260507061911 | 44 | 248 | 0.0 | 0.0 | 0.00 | 0.17 | 0.00 | 78 | 1012.7 |
| 20260507061506 | 44 | 248 | 0.0 | 0.0 | 0.00 | 0.17 | 0.00 | 78 | 1012.8 |
| 20260507061056 | 44 | 248 | 0.0 | 0.0 | 0.00 | 0.17 | 0.00 | 77 | 1012.8 |
| 20260507060700 | 44 | 247 | 0.0 | 0.0 | 0.00 | 0.18 | 0.00 | 77 | 1012.8 |
| 20260507060257 | 44 | 246 | 0.0 | 0.0 | 0.00 | 0.18 | 0.00 | 78 | 1012.8 |
| 20260507055858 | 44 | 246 | 0.0 | 0.0 | 0.00 | 0.18 | 0.00 | 77 | 1012.8 |
| 20260507055443 | 44 | 247 | 0.0 | 0.0 | 0.00 | 0.18 | 0.00 | 77 | 1012.8 |
| 20260507055044 | 45 | 247 | 0.0 | 0.0 | 0.00 | 0.19 | 0.00 | 76 | 1012.8 |
| 20260507054631 | 45 | 247 | 0.0 | 0.0 | 0.00 | 0.19 | 0.00 | 76 | 1012.8 |
| 20260507054236 | 45 | 246 | 0.0 | 0.0 | 0.00 | 0.19 | 0.00 | 76 | 1012.9 |
| 20260507053824 | 46 | 247 | 0.0 | 0.0 | 0.00 | 0.19 | 0.00 | 75 | 1013.0 |
| 20260507053418 | 46 | 246 | 0.0 | 0.0 | 0.00 | 0.19 | 0.00 | 75 | 1013.0 |
| 20260507053015 | 46 | 240 | 0.0 | 0.0 | 0.00 | 0.19 | 0.00 | 75 | 1013.1 |
| 20260507052559 | 46 | 240 | 0.0 | 0.0 | 0.00 | 0.19 | 0.00 | 74 | 1013.2 |
| 20260507052154 | 46 | 243 | 0.0 | 0.0 | 0.00 | 0.19 | 0.00 | 76 | 1013.3 |
| 20260507051742 | 46 | 242 | 0.0 | 0.0 | 0.00 | 0.19 | 0.00 | 76 | 1013.2 |
| 20260507051338 | 46 | 243 | 0.0 | 0.0 | 0.00 | 0.19 | 0.00 | 76 | 1013.3 |
| 20260507050929 | 46 | 242 | 0.0 | 0.0 | 0.00 | 0.19 | 0.00 | 76 | 1013.3 |
| 20260507050527 | 46 | 244 | 0.0 | 0.0 | 0.00 | 0.20 | 0.00 | 76 | 1013.3 |
| 20260507050119 | 46 | 244 | 0.0 | 0.0 | 0.00 | 0.20 | 0.00 | 76 | 1013.3 |
| 20260507045717 | 46 | 221 | 0.0 | 0.0 | 0.00 | 0.20 | 0.00 | 76 | 1013.4 |
| 20260507045323 | 46 | 229 | 0.0 | 0.0 | 0.00 | 0.20 | 0.00 | 76 | 1013.5 |
| 20260507044926 | 45 | 228 | 0.0 | 0.0 | 0.00 | 0.20 | 0.00 | 76 | 1013.5 |
| 20260507044519 | 45 | 230 | 0.0 | 0.0 | 0.00 | 0.20 | 0.00 | 77 | 1013.4 |
| 20260507044102 | 45 | 234 | 0.0 | 0.0 | 0.00 | 0.21 | 0.00 | 76 | 1013.4 |
| 20260507043709 | 45 | 234 | 0.0 | 0.0 | 0.00 | 0.21 | 0.00 | 76 | 1013.4 |
| 20260507043315 | 45 | 45 | 0.0 | 0.0 | 0.00 | 0.21 | 0.00 | 78 | 1013.4 |
| 20260507042907 | 45 | 46 | 0.0 | 0.0 | 0.00 | 0.21 | 0.00 | 77 | 1013.4 |
| 20260507041938 | 45 | 46 | 0.0 | 0.0 | 0.00 | 0.22 | 0.00 | 79 | 1013.6 |
| 20260507041539 | 45 | 46 | 0.0 | 0.0 | 0.00 | 0.23 | 0.00 | 79 | 1013.6 |
| 20260507041145 | 45 | 46 | 0.0 | 0.0 | 0.00 | 0.24 | 0.00 | 80 | 1013.7 |
| 20260507040730 | 45 | 46 | 0.0 | 0.0 | 0.00 | 0.24 | 0.00 | 80 | 1013.8 |
| 20260507040322 | 45 | 46 | 0.0 | 0.0 | 0.00 | 0.24 | 0.00 | 81 | 1013.8 |
| 20260507035412 | 45 | 47 | 0.0 | 0.0 | 0.00 | 0.25 | 0.24 | 81 | 1013.8 |
| 20260507034446 | 45 | 47 | 0.0 | 0.0 | 0.00 | 0.27 | 0.24 | 82 | 1013.9 |
| 20260507034038 | 45 | 47 | 0.0 | 0.0 | 0.00 | 0.29 | 0.24 | 82 | 1013.8 |
| 20260507033113 | 45 | 47 | 0.0 | 0.0 | 0.00 | 0.31 | 0.24 | 81 | 1013.9 |
| 20260507032717 | 45 | 47 | 0.0 | 0.0 | 0.00 | 0.31 | 0.24 | 81 | 1013.9 |
| 20260507032306 | 45 | 48 | 0.0 | 0.0 | 0.00 | 0.32 | 0.24 | 81 | 1013.9 |
| 20260507031910 | 45 | 46 | 0.0 | 0.0 | 0.00 | 0.32 | 0.24 | 81 | 1013.9 |
| 20260507031456 | 45 | 47 | 0.0 | 0.0 | 0.00 | 0.33 | 0.24 | 81 | 1013.9 |
| 20260507031058 | 45 | 48 | 0.0 | 0.0 | 0.00 | 0.35 | 0.24 | 80 | 1013.9 |
| 20260507030129 | 45 | 48 | 0.0 | 0.0 | 0.00 | 0.37 | 0.24 | 80 | 1013.9 |
| 20260507025726 | 45 | 44 | 0.0 | 0.0 | 0.00 | 0.37 | 0.24 | 79 | 1013.9 |
| 20260507025331 | 45 | 45 | 0.0 | 0.0 | 0.00 | 0.38 | 0.24 | 78 | 1013.8 |
| 20260507024935 | 45 | 46 | 0.0 | 0.0 | 0.00 | 0.38 | 0.24 | 78 | 1013.7 |
| 20260507023958 | 46 | 46 | 0.0 | 0.0 | 0.00 | 0.42 | 0.24 | 77 | 1013.7 |
| 20260507023557 | 46 | 46 | 0.0 | 0.0 | 0.00 | 0.43 | 0.24 | 77 | 1013.7 |
| 20260507023156 | 46 | 42 | 0.0 | 0.0 | 0.00 | 0.43 | 0.24 | 78 | 1013.8 |
| 20260507022754 | 46 | 42 | 0.0 | 0.0 | 0.00 | 0.44 | 0.24 | 78 | 1013.8 |
| 20260507022359 | 46 | 42 | 0.0 | 0.0 | 0.00 | 0.44 | 0.24 | 77 | 1013.8 |
| 20260507021959 | 46 | 43 | 0.0 | 0.0 | 0.00 | 0.44 | 0.24 | 77 | 1013.7 |
| 20260507021549 | 46 | 43 | 0.0 | 0.0 | 0.00 | 0.45 | 0.24 | 76 | 1013.7 |
| 20260507021146 | 46 | 42 | 0.0 | 0.0 | 0.00 | 0.45 | 0.24 | 76 | 1013.7 |
| 20260507020732 | 46 | 42 | 0.0 | 0.0 | 0.00 | 0.46 | 0.24 | 75 | 1013.7 |
| 20260507020321 | 46 | 42 | 0.0 | 0.0 | 0.00 | 0.46 | 0.24 | 74 | 1013.6 |
| 20260507015913 | 46 | 43 | 0.0 | 0.0 | 0.00 | 0.46 | 0.24 | 72 | 1013.5 |
| 20260507015516 | 47 | 46 | 0.0 | 0.0 | 0.00 | 0.46 | 0.24 | 73 | 1013.4 |
| 20260507015122 | 47 | 48 | 0.0 | 0.0 | 0.00 | 0.48 | 0.24 | 70 | 1013.5 |
| 20260507014728 | 47 | 48 | 0.0 | 0.0 | 0.00 | 0.49 | 0.24 | 68 | 1013.6 |
| 20260507014329 | 47 | 49 | 0.0 | 0.0 | 0.00 | 0.49 | 0.24 | 69 | 1013.6 |
| 20260507013932 | 47 | 48 | 0.0 | 0.0 | 0.00 | 0.49 | 0.24 | 68 | 1013.8 |
| 20260507013521 | 48 | 49 | 0.0 | 0.0 | 0.00 | 0.50 | 0.24 | 69 | 1013.6 |
| 20260507013111 | 48 | 49 | 0.0 | 0.0 | 0.00 | 0.50 | 0.24 | 68 | 1013.6 |
| 20260507012706 | 48 | 48 | 0.0 | 0.0 | 0.00 | 0.50 | 0.24 | 65 | 1013.6 |
| 20260507012307 | 48 | 49 | 0.0 | 0.0 | 0.00 | 0.50 | 0.24 | 63 | 1013.6 |
| 20260507011857 | 48 | 49 | 0.0 | 0.0 | 0.00 | 0.51 | 0.24 | 65 | 1013.7 |
| 20260507011452 | 48 | 49 | 0.0 | 0.0 | 0.00 | 0.51 | 0.24 | 62 | 1013.5 |
| 20260507010637 | 49 | 49 | 0.0 | 0.0 | 0.00 | 0.51 | 0.24 | 63 | 1013.6 |
| 20260507005717 | 49 | 49 | 0.0 | 0.0 | 0.00 | 0.51 | 0.24 | 60 | 1013.7 |
| 20260507005300 | 49 | 49 | 0.0 | 0.0 | 0.00 | 0.51 | 0.24 | 58 | 1013.7 |